Flag for Austria Past Weather in Gerasdorf bei Wien, Lower Austria, Austria — Yesterday and Last 2 Weeks

Now
89 °F

Partly sunny.


Feels Like: 94 °F
Forecast: 68 / 79 °F
Wind: 6 mph from South

Location: Wien / Hohe Warte

Current Time: Jun 25, 2016 at 2:31:34 PM

Latest Report: Jun 25, 2016 at 1:00 PM


Visibility: 14 mi

Pressure: 29.87 "Hg

Humidity: 52%

Dew Point: 69 °F

Location of Gerasdorf bei WienLocation

Past Weather in Gerasdorf bei Wien — Graph

°F

Gerasdorf bei Wien Temperature Yesterday

Maximum temperature yesterday: 91 °F (at 5:00 PM)
Minimum temperature yesterday: 67 °F (at 5:00 AM)
Average temperature yesterday: 80 °F

High & Low Weather Summary for the Past Weeks

 TemperatureHumidityPressure
High91 °F (Jun 24, 5:00 PM)96% (Jun 21, 4:00 AM)30.27 "Hg (Jun 21, 4:00 AM)
Low56 °F (Jun 21, 5:00 AM)36% (Jun 10, 6:00 PM)29.47 "Hg (Jun 17, 5:00 AM)
Average69 °F69%29.89 "Hg
* Reported Jun 10 1:00 PM — Jun 25 1:00 PM, Gerasdorf bei Wien, Weather by CustomWeather, © 2016

Note: Actual official high and low records may vary slightly from our data, if they occured in-between our weather recording intervals... More about our weather records

Advertising

Gerasdorf bei Wien Weather History for the Previous 24 Hours

Scroll right to see more
 ConditionsComfort  
Time TempWeatherWind HumidityBarometerVisibility
1:00 PM
Sat, Jun 25
89 °FPartly sunny.6 mph52%29.87 "Hg14 mi
12:00 PM88 °FScattered clouds.6 mph54%29.89 "Hg12 mi
11:00 AM86 °FPassing clouds.6 mph61%29.89 "Hg12 mi
10:00 AM84 °FSunny.5 mph66%29.89 "Hg9 mi
9:00 AM83 °FWarm.3 mph68%29.89 "HgN/A
8:00 AM80 °FWarm.3 mph73%29.90 "HgN/A
7:00 AM76 °FSunny.1 mph79%29.90 "Hg12 mi
6:00 AM72 °FSunny.2 mph87%29.90 "Hg12 mi
5:00 AM72 °FPassing clouds.2 mph88%29.91 "Hg12 mi
4:00 AM72 °FPassing clouds.1 mph87%29.91 "Hg16 mi
3:00 AM74 °FMild.1 mph83%29.92 "HgN/A
2:00 AM76 °FClear.2 mph79%29.94 "Hg16 mi
1:00 AM79 °FWarm.2 mph72%29.94 "HgN/A
12:00 AM80 °FWarm.2 mph68%29.95 "HgN/A
11:00 PM
Fri, Jun 24
81 °FClear.3 mph66%29.95 "Hg19 mi
10:00 PM84 °FClear.3 mph59%29.96 "Hg19 mi
9:00 PM85 °FClear.5 mph55%29.94 "Hg19 mi
8:00 PM87 °FWarm.3 mph51%29.94 "HgN/A
7:00 PM88 °FPassing clouds.5 mph49%29.94 "Hg15 mi
6:00 PM90 °FPassing clouds.6 mph47%29.95 "Hg15 mi
5:00 PM91 °FPassing clouds.5 mph44%29.96 "Hg16 mi
4:00 PM91 °FPassing clouds.7 mph44%29.97 "Hg17 mi
3:00 PM90 °FPassing clouds.8 mph47%29.99 "Hg16 mi
2:00 PM90 °FPassing clouds.6 mph49%30.00 "Hg16 mi
Weather by CustomWeather, © 2016

See weather overviewHow to use our weather pages